Year,Month,Day,Hour,Minute,Value (Times are PST for temperature in C)
2014,08,19,00,00,16.40
2014,08,19,00,01,16.40
2014,08,19,00,02,16.40
2014,08,19,00,03,16.40
2014,08,19,00,04,16.40
2014,08,19,00,05,16.50
2014,08,19,00,06,16.60
2014,08,19,00,07,16.60
2014,08,19,00,08,16.60
2014,08,19,00,09,16.60
2014,08,19,00,10,16.60
2014,08,19,00,11,16.70
2014,08,19,00,12,16.70
2014,08,19,00,13,16.70
2014,08,19,00,14,16.80
2014,08,19,00,15,16.90
2014,08,19,00,16,16.90
2014,08,19,00,17,17.00
2014,08,19,00,18,17.00
2014,08,19,00,19,17.00
2014,08,19,00,20,16.90
2014,08,19,00,21,16.90
2014,08,19,00,22,17.00
2014,08,19,00,23,17.00
2014,08,19,00,24,17.00
2014,08,19,00,25,17.00
2014,08,19,00,26,17.00
2014,08,19,00,27,17.00
2014,08,19,00,28,17.00
2014,08,19,00,29,17.00
2014,08,19,00,30,17.00
2014,08,19,00,31,17.10
2014,08,19,00,32,17.10
2014,08,19,00,33,17.10
2014,08,19,00,34,17.10
2014,08,19,00,35,17.10
2014,08,19,00,36,17.20
2014,08,19,00,37,17.20
2014,08,19,00,38,17.20
2014,08,19,00,39,17.20
2014,08,19,00,40,17.20
2014,08,19,00,41,17.30
2014,08,19,00,42,17.30
2014,08,19,00,43,17.30
2014,08,19,00,44,17.30
2014,08,19,00,45,17.30
2014,08,19,00,46,17.30
2014,08,19,00,47,17.30
2014,08,19,00,48,17.30
2014,08,19,00,49,17.40
2014,08,19,00,50,17.40
2014,08,19,00,51,17.40
2014,08,19,00,52,17.40
2014,08,19,00,53,17.40
2014,08,19,00,54,17.50
2014,08,19,00,55,17.50
2014,08,19,00,56,17.50
2014,08,19,00,57,17.50
2014,08,19,00,58,17.50
2014,08,19,00,59,17.50
2014,08,19,01,00,17.40
2014,08,19,01,01,17.30
2014,08,19,01,02,17.20
2014,08,19,01,03,17.10
2014,08,19,01,04,16.90
2014,08,19,01,05,16.80
2014,08,19,01,06,16.70
2014,08,19,01,07,16.60
2014,08,19,01,08,16.50
2014,08,19,01,09,16.40
2014,08,19,01,10,16.40
2014,08,19,01,11,16.30
2014,08,19,01,12,16.20
2014,08,19,01,13,16.10
2014,08,19,01,14,16.00
2014,08,19,01,15,15.90
2014,08,19,01,16,15.80
2014,08,19,01,17,15.80
2014,08,19,01,18,15.70
2014,08,19,01,19,15.70
2014,08,19,01,20,15.60
2014,08,19,01,21,15.60
2014,08,19,01,22,15.60
2014,08,19,01,23,15.50
2014,08,19,01,24,15.50
2014,08,19,01,25,15.50
2014,08,19,01,26,15.50
2014,08,19,01,27,15.50
2014,08,19,01,28,15.60
2014,08,19,01,29,15.60
2014,08,19,01,30,15.60
2014,08,19,01,31,15.70
2014,08,19,01,32,15.70
2014,08,19,01,33,15.80
2014,08,19,01,34,15.80
2014,08,19,01,35,15.80
2014,08,19,01,36,15.80
2014,08,19,01,37,15.80
2014,08,19,01,38,15.80
2014,08,19,01,39,15.80
2014,08,19,01,40,15.80
2014,08,19,01,41,15.80
2014,08,19,01,42,15.80
2014,08,19,01,43,15.80
2014,08,19,01,44,15.80
2014,08,19,01,45,15.70
2014,08,19,01,46,15.60
2014,08,19,01,47,15.50
2014,08,19,01,48,15.30
2014,08,19,01,49,15.20
2014,08,19,01,50,15.10
2014,08,19,01,51,15.00
2014,08,19,01,52,14.90
2014,08,19,01,53,14.90
2014,08,19,01,54,14.80
2014,08,19,01,55,14.80
2014,08,19,01,56,14.80
2014,08,19,01,57,14.80
2014,08,19,01,58,14.80
2014,08,19,01,59,14.80
2014,08,19,02,00,14.80
2014,08,19,02,01,14.80
2014,08,19,02,02,14.80
2014,08,19,02,03,14.80
2014,08,19,02,04,14.80
2014,08,19,02,05,14.80
2014,08,19,02,06,14.90
2014,08,19,02,07,14.90
2014,08,19,02,08,14.90
2014,08,19,02,09,15.00
2014,08,19,02,10,15.10
2014,08,19,02,11,15.10
2014,08,19,02,12,15.20
2014,08,19,02,13,15.20
2014,08,19,02,14,15.30
2014,08,19,02,15,15.30
2014,08,19,02,16,15.30
2014,08,19,02,17,15.30
2014,08,19,02,18,15.40
2014,08,19,02,19,15.40
2014,08,19,02,20,15.40
2014,08,19,02,21,15.50
2014,08,19,02,22,15.50
2014,08,19,02,23,15.50
2014,08,19,02,24,15.50
2014,08,19,02,25,15.60
2014,08,19,02,26,15.60
2014,08,19,02,27,15.60
2014,08,19,02,28,15.60
2014,08,19,02,29,15.60
2014,08,19,02,30,15.60
2014,08,19,02,31,15.60
2014,08,19,02,32,15.60
2014,08,19,02,33,15.60
2014,08,19,02,34,15.60
2014,08,19,02,35,15.60
2014,08,19,02,36,15.60
2014,08,19,02,37,15.60
2014,08,19,02,38,15.60
2014,08,19,02,39,15.60
2014,08,19,02,40,15.60
2014,08,19,02,41,15.60
2014,08,19,02,42,15.60
2014,08,19,02,43,15.60
2014,08,19,02,44,15.60
2014,08,19,02,45,15.60
2014,08,19,02,46,15.60
2014,08,19,02,47,15.60
2014,08,19,02,48,15.70
2014,08,19,02,49,15.70
2014,08,19,02,50,15.70
2014,08,19,02,51,15.70
2014,08,19,02,52,15.70
2014,08,19,02,53,15.80
2014,08,19,02,54,15.80
2014,08,19,02,55,15.80
2014,08,19,02,56,15.80
2014,08,19,02,57,15.80
2014,08,19,02,58,15.80
2014,08,19,02,59,15.90
2014,08,19,03,00,15.90
2014,08,19,03,01,16.00
2014,08,19,03,02,16.10
2014,08,19,03,03,16.10
2014,08,19,03,04,16.10
2014,08,19,03,05,16.10
2014,08,19,03,06,16.20
2014,08,19,03,07,16.20
2014,08,19,03,08,16.20
2014,08,19,03,09,16.20
2014,08,19,03,10,16.20
2014,08,19,03,11,16.20
2014,08,19,03,12,16.20
2014,08,19,03,13,16.20
2014,08,19,03,14,16.20
2014,08,19,03,15,16.20
2014,08,19,03,16,16.20
2014,08,19,03,17,16.20
2014,08,19,03,18,16.30
2014,08,19,03,19,16.30
2014,08,19,03,20,16.30
2014,08,19,03,21,16.30
2014,08,19,03,22,16.30
2014,08,19,03,23,16.30
2014,08,19,03,24,16.30
2014,08,19,03,25,16.30
2014,08,19,03,26,16.30
2014,08,19,03,27,16.20
2014,08,19,03,28,16.20
2014,08,19,03,29,16.10
2014,08,19,03,30,16.10
2014,08,19,03,31,16.10
2014,08,19,03,32,16.10
2014,08,19,03,33,16.00
2014,08,19,03,34,15.90
2014,08,19,03,35,15.90
2014,08,19,03,36,15.90
2014,08,19,03,37,15.80
2014,08,19,03,38,15.80
2014,08,19,03,39,15.80
2014,08,19,03,40,15.80
2014,08,19,03,41,15.80
2014,08,19,03,42,15.80
2014,08,19,03,43,15.80
2014,08,19,03,44,15.80
2014,08,19,03,45,15.80
2014,08,19,03,46,15.80
2014,08,19,03,47,15.70
2014,08,19,03,48,15.70
2014,08,19,03,49,15.70
2014,08,19,03,50,15.70
2014,08,19,03,51,15.70
2014,08,19,03,52,15.70
2014,08,19,03,53,15.70
2014,08,19,03,54,15.70
2014,08,19,03,55,15.70
2014,08,19,03,56,15.70
2014,08,19,03,57,15.70
2014,08,19,03,58,15.70
2014,08,19,03,59,15.70
2014,08,19,04,00,15.70
2014,08,19,04,01,15.60
2014,08,19,04,02,15.60
2014,08,19,04,03,15.60
2014,08,19,04,04,15.50
2014,08,19,04,05,15.50
2014,08,19,04,06,15.50
2014,08,19,04,07,15.40
2014,08,19,04,08,15.40
2014,08,19,04,09,15.40
2014,08,19,04,10,15.40
2014,08,19,04,11,15.30
2014,08,19,04,12,15.30
2014,08,19,04,13,15.30
2014,08,19,04,14,15.30
2014,08,19,04,15,15.20
2014,08,19,04,16,15.20
2014,08,19,04,17,15.20
2014,08,19,04,18,15.10
2014,08,19,04,19,15.10
2014,08,19,04,20,15.10
2014,08,19,04,21,15.00
2014,08,19,04,22,15.00
2014,08,19,04,23,15.00
2014,08,19,04,24,14.90
2014,08,19,04,25,14.90
2014,08,19,04,26,14.90
2014,08,19,04,27,14.80
2014,08,19,04,28,14.80
2014,08,19,04,29,14.80
2014,08,19,04,30,14.70
2014,08,19,04,31,14.70
2014,08,19,04,32,14.70
2014,08,19,04,33,14.70
2014,08,19,04,34,14.70
2014,08,19,04,35,14.70
2014,08,19,04,36,14.70
2014,08,19,04,37,14.60
2014,08,19,04,38,14.60
2014,08,19,04,39,14.70
2014,08,19,04,40,14.70
2014,08,19,04,41,14.70
2014,08,19,04,42,14.70
2014,08,19,04,43,14.70
2014,08,19,04,44,14.70
2014,08,19,04,45,14.70
2014,08,19,04,46,14.70
2014,08,19,04,47,14.70
2014,08,19,04,48,14.70
2014,08,19,04,49,14.70
2014,08,19,04,50,14.70
2014,08,19,04,51,14.70
2014,08,19,04,52,14.70
2014,08,19,04,53,14.70
2014,08,19,04,54,14.70
2014,08,19,04,55,14.70
2014,08,19,04,56,14.70
2014,08,19,04,57,14.70
2014,08,19,04,58,14.70
2014,08,19,04,59,14.70
2014,08,19,05,00,14.70
2014,08,19,05,01,14.70
2014,08,19,05,02,14.70
2014,08,19,05,03,14.70
2014,08,19,05,04,14.70
2014,08,19,05,05,14.80
2014,08,19,05,06,14.80
2014,08,19,05,07,14.80
2014,08,19,05,08,14.70
2014,08,19,05,09,14.70
2014,08,19,05,10,14.70
2014,08,19,05,11,14.70
2014,08,19,05,12,14.70
2014,08,19,05,13,14.70
2014,08,19,05,14,14.60
2014,08,19,05,15,14.60
2014,08,19,05,16,14.60
2014,08,19,05,17,14.60
2014,08,19,05,18,14.60
2014,08,19,05,19,14.60
2014,08,19,05,20,14.60
2014,08,19,05,21,14.60
2014,08,19,05,22,14.60
2014,08,19,05,23,14.60
2014,08,19,05,24,14.60
2014,08,19,05,25,14.60
2014,08,19,05,26,14.60
2014,08,19,05,27,14.60
2014,08,19,05,28,14.60
2014,08,19,05,29,14.60
2014,08,19,05,30,14.60
2014,08,19,05,31,14.60
2014,08,19,05,32,14.60
2014,08,19,05,33,14.60
2014,08,19,05,34,14.60
2014,08,19,05,35,14.60
2014,08,19,05,36,14.60
2014,08,19,05,37,14.60
2014,08,19,05,38,14.60
2014,08,19,05,39,14.50
2014,08,19,05,40,14.50
2014,08,19,05,41,14.50
2014,08,19,05,42,14.50
2014,08,19,05,43,14.50
2014,08,19,05,44,14.50
2014,08,19,05,45,14.50
2014,08,19,05,46,14.40
2014,08,19,05,47,14.40
2014,08,19,05,48,14.40
2014,08,19,05,49,14.40
2014,08,19,05,50,14.40
2014,08,19,05,51,14.40
2014,08,19,05,52,14.40
2014,08,19,05,53,14.30
2014,08,19,05,54,14.30
2014,08,19,05,55,14.30
2014,08,19,05,56,14.30
2014,08,19,05,57,14.20
2014,08,19,05,58,14.20
2014,08,19,05,59,14.20
2014,08,19,06,00,14.20
2014,08,19,06,01,14.20
2014,08,19,06,02,14.20
2014,08,19,06,03,14.20
2014,08,19,06,04,14.20
2014,08,19,06,05,14.20
2014,08,19,06,06,14.20
2014,08,19,06,07,14.10
2014,08,19,06,08,14.10
2014,08,19,06,09,14.10
2014,08,19,06,10,14.10
2014,08,19,06,11,14.00
2014,08,19,06,12,14.00
2014,08,19,06,13,14.00
2014,08,19,06,14,13.90
2014,08,19,06,15,13.90
2014,08,19,06,16,13.80
2014,08,19,06,17,13.80
2014,08,19,06,18,13.70
2014,08,19,06,19,13.70
2014,08,19,06,20,13.70
2014,08,19,06,21,13.60
2014,08,19,06,22,13.60
2014,08,19,06,23,13.60
2014,08,19,06,24,13.50
2014,08,19,06,25,13.50
2014,08,19,06,26,13.50
2014,08,19,06,27,13.40
2014,08,19,06,28,13.40
2014,08,19,06,29,13.40
2014,08,19,06,30,13.40
2014,08,19,06,31,13.40
2014,08,19,06,32,13.40
2014,08,19,06,33,13.40
2014,08,19,06,34,13.40
2014,08,19,06,35,13.40
2014,08,19,06,36,13.40
2014,08,19,06,37,13.30
2014,08,19,06,38,13.30
2014,08,19,06,39,13.30
2014,08,19,06,40,13.30
2014,08,19,06,41,13.30
2014,08,19,06,42,13.40
2014,08,19,06,43,13.40
2014,08,19,06,44,13.40
2014,08,19,06,45,13.40
2014,08,19,06,46,13.40
2014,08,19,06,47,13.40
2014,08,19,06,48,13.50
2014,08,19,06,49,13.50
2014,08,19,06,50,13.50
2014,08,19,06,51,13.50
2014,08,19,06,52,13.50
2014,08,19,06,53,13.50
2014,08,19,06,54,13.50
2014,08,19,06,55,13.50
2014,08,19,06,56,13.50
2014,08,19,06,57,13.40
2014,08,19,06,58,13.40
2014,08,19,06,59,13.40
2014,08,19,07,00,13.40
2014,08,19,07,01,13.40
2014,08,19,07,02,13.40
2014,08,19,07,03,13.50
2014,08,19,07,04,13.50
2014,08,19,07,05,13.50
2014,08,19,07,06,13.50
2014,08,19,07,07,13.50
2014,08,19,07,08,13.60
2014,08,19,07,09,13.60
2014,08,19,07,10,13.60
2014,08,19,07,11,13.60
2014,08,19,07,12,13.60
2014,08,19,07,13,13.60
2014,08,19,07,14,13.60
2014,08,19,07,15,13.60
2014,08,19,07,16,13.60
2014,08,19,07,17,13.60
2014,08,19,07,18,13.60
2014,08,19,07,19,13.60
2014,08,19,07,20,13.60
2014,08,19,07,21,13.60
2014,08,19,07,22,13.60
2014,08,19,07,23,13.60
2014,08,19,07,24,13.70
2014,08,19,07,25,13.70
2014,08,19,07,26,13.70
2014,08,19,07,27,13.70
2014,08,19,07,28,13.70
2014,08,19,07,29,13.70
2014,08,19,07,30,13.70
2014,08,19,07,31,13.70
2014,08,19,07,32,13.70
2014,08,19,07,33,13.70
2014,08,19,07,34,13.70
2014,08,19,07,35,13.70
2014,08,19,07,36,13.80
2014,08,19,07,37,13.80
2014,08,19,07,38,13.90
2014,08,19,07,39,13.90
2014,08,19,07,40,14.00
2014,08,19,07,41,14.00
2014,08,19,07,42,14.10
2014,08,19,07,43,14.20
2014,08,19,07,44,14.20
2014,08,19,07,45,14.20
2014,08,19,07,46,14.30
2014,08,19,07,47,14.40
2014,08,19,07,48,14.50
2014,08,19,07,49,14.60
2014,08,19,07,50,14.60
2014,08,19,07,51,14.80
2014,08,19,07,52,14.80
2014,08,19,07,53,14.80
2014,08,19,07,54,14.80
2014,08,19,07,55,14.70
2014,08,19,07,56,14.70
2014,08,19,07,57,14.60
2014,08,19,07,58,14.50
2014,08,19,07,59,14.40
2014,08,19,08,00,14.30
2014,08,19,08,01,14.20
2014,08,19,08,02,14.20
2014,08,19,08,03,14.20
2014,08,19,08,04,14.20
2014,08,19,08,05,14.20
2014,08,19,08,06,14.20
2014,08,19,08,07,14.20
2014,08,19,08,08,14.20
2014,08,19,08,09,14.10
2014,08,19,08,10,14.10
2014,08,19,08,11,14.00
2014,08,19,08,12,14.00
2014,08,19,08,13,13.90
2014,08,19,08,14,13.90
2014,08,19,08,15,13.90
2014,08,19,08,16,13.80
2014,08,19,08,17,13.70
2014,08,19,08,18,13.70
2014,08,19,08,19,13.60
2014,08,19,08,20,13.60
2014,08,19,08,21,13.60
2014,08,19,08,22,13.60
2014,08,19,08,23,13.70
2014,08,19,08,24,13.70
2014,08,19,08,25,13.70
2014,08,19,08,26,13.70
2014,08,19,08,27,13.80
2014,08,19,08,28,13.80
2014,08,19,08,29,13.80
2014,08,19,08,30,13.80
2014,08,19,08,31,13.70
2014,08,19,08,32,13.70
2014,08,19,08,33,13.70
2014,08,19,08,34,13.70
2014,08,19,08,35,13.70
2014,08,19,08,36,13.70
2014,08,19,08,37,13.70
2014,08,19,08,38,13.70
2014,08,19,08,39,13.70
2014,08,19,08,40,13.80
2014,08,19,08,41,13.80
2014,08,19,08,42,13.90
2014,08,19,08,43,13.90
2014,08,19,08,44,13.90
2014,08,19,08,45,14.00
2014,08,19,08,46,14.10
2014,08,19,08,47,14.20
2014,08,19,08,48,14.30
2014,08,19,08,49,14.40
2014,08,19,08,50,14.50
2014,08,19,08,51,14.60
2014,08,19,08,52,14.70
2014,08,19,08,53,14.80
2014,08,19,08,54,15.00
2014,08,19,08,55,15.00
2014,08,19,08,56,15.10
2014,08,19,08,57,15.30
2014,08,19,08,58,15.40
2014,08,19,08,59,15.50
2014,08,19,09,00,15.60
2014,08,19,09,01,15.70
2014,08,19,09,02,15.80
2014,08,19,09,03,16.00
2014,08,19,09,04,16.10
2014,08,19,09,05,16.20
2014,08,19,09,06,16.30
2014,08,19,09,07,16.40
2014,08,19,09,08,16.50
2014,08,19,09,09,16.70
2014,08,19,09,10,16.70
2014,08,19,09,11,16.90
2014,08,19,09,12,17.00
2014,08,19,09,13,17.20
2014,08,19,09,14,17.30
2014,08,19,09,15,17.50
2014,08,19,09,16,17.60
2014,08,19,09,17,17.70
2014,08,19,09,18,17.90
2014,08,19,09,19,17.90
2014,08,19,09,20,18.00
2014,08,19,09,21,18.10
2014,08,19,09,22,17.90
2014,08,19,09,23,17.90
2014,08,19,09,24,17.80
2014,08,19,09,25,17.70
2014,08,19,09,26,17.60
2014,08,19,09,27,17.50
2014,08,19,09,28,17.30
2014,08,19,09,29,17.30
2014,08,19,09,30,17.20
2014,08,19,09,31,17.00
2014,08,19,09,32,16.90
2014,08,19,09,33,16.80
2014,08,19,09,34,16.70
2014,08,19,09,35,16.50
2014,08,19,09,36,16.40
2014,08,19,09,37,16.30
2014,08,19,09,38,16.30
2014,08,19,09,39,16.30
2014,08,19,09,40,16.20
2014,08,19,09,41,16.10
2014,08,19,09,42,15.90
2014,08,19,09,43,15.80
2014,08,19,09,44,15.80
2014,08,19,09,45,15.80
2014,08,19,09,46,15.80
2014,08,19,09,47,15.80
2014,08,19,09,48,15.80
2014,08,19,09,49,15.90
2014,08,19,09,50,16.00
2014,08,19,09,51,16.10
2014,08,19,09,52,16.20
2014,08,19,09,53,16.20
2014,08,19,09,54,16.20
2014,08,19,09,55,16.30
2014,08,19,09,56,16.30
2014,08,19,09,57,16.30
2014,08,19,09,58,16.40
2014,08,19,09,59,16.40
2014,08,19,10,00,16.40
2014,08,19,10,01,16.40
2014,08,19,10,02,16.40
2014,08,19,10,03,16.50
2014,08,19,10,04,16.60
2014,08,19,10,05,16.60
2014,08,19,10,06,16.70
2014,08,19,10,07,16.70
2014,08,19,10,08,16.70
2014,08,19,10,09,16.70
2014,08,19,10,10,16.70
2014,08,19,10,11,16.70
2014,08,19,10,12,16.70
2014,08,19,10,13,16.70
2014,08,19,10,14,16.80
2014,08,19,10,15,16.80
2014,08,19,10,16,16.90
2014,08,19,10,17,17.00
2014,08,19,10,18,17.10
2014,08,19,10,19,17.10
2014,08,19,10,20,17.00
2014,08,19,10,21,16.80
2014,08,19,10,22,16.50
2014,08,19,10,23,16.10
2014,08,19,10,24,15.90
2014,08,19,10,25,15.70
2014,08,19,10,26,15.60
2014,08,19,10,27,15.50
2014,08,19,10,28,15.30
2014,08,19,10,29,15.30
2014,08,19,10,30,15.30
2014,08,19,10,31,15.40
2014,08,19,10,32,15.50
2014,08,19,10,33,15.60
2014,08,19,10,34,15.80
2014,08,19,10,35,16.00
2014,08,19,10,36,16.10
2014,08,19,10,37,16.20
2014,08,19,10,38,16.30
2014,08,19,10,39,16.40
2014,08,19,10,40,16.40
2014,08,19,10,41,16.50
2014,08,19,10,42,16.60
2014,08,19,10,43,16.70
2014,08,19,10,44,16.80
2014,08,19,10,45,17.00
2014,08,19,10,46,17.10
2014,08,19,10,47,17.30
2014,08,19,10,48,17.50
2014,08,19,10,49,17.70
2014,08,19,10,50,17.90
2014,08,19,10,51,18.20
2014,08,19,10,52,18.40
2014,08,19,10,53,18.60
2014,08,19,10,54,18.70
2014,08,19,10,55,18.80
2014,08,19,10,56,18.90
2014,08,19,10,57,18.90
2014,08,19,10,58,18.90
2014,08,19,10,59,19.00
2014,08,19,11,00,19.20
2014,08,19,11,01,19.40
2014,08,19,11,02,19.60
2014,08,19,11,03,19.80
2014,08,19,11,04,20.00
2014,08,19,11,05,20.10
2014,08,19,11,06,20.20
2014,08,19,11,07,20.30
2014,08,19,11,08,20.30
2014,08,19,11,09,20.40
2014,08,19,11,10,20.40
2014,08,19,11,11,20.40
2014,08,19,11,12,20.30
2014,08,19,11,13,20.30
2014,08,19,11,14,20.30
2014,08,19,11,15,20.50
2014,08,19,11,16,20.60
2014,08,19,11,17,20.70
2014,08,19,11,18,20.80
2014,08,19,11,19,20.90
2014,08,19,11,20,20.90
2014,08,19,11,21,21.00
2014,08,19,11,22,21.10
2014,08,19,11,23,21.00
2014,08,19,11,24,20.90
2014,08,19,11,25,20.90
2014,08,19,11,26,20.90
2014,08,19,11,27,20.90
2014,08,19,11,28,20.90
2014,08,19,11,29,20.90
2014,08,19,11,30,20.80
2014,08,19,11,31,20.70
2014,08,19,11,32,20.70
2014,08,19,11,33,20.60
2014,08,19,11,34,20.60
2014,08,19,11,35,20.60
2014,08,19,11,36,20.70
2014,08,19,11,37,20.70
2014,08,19,11,38,20.80
2014,08,19,11,39,20.80
2014,08,19,11,40,20.90
2014,08,19,11,41,20.80
2014,08,19,11,42,20.70
2014,08,19,11,43,20.70
2014,08,19,11,44,20.50
2014,08,19,11,45,20.50
2014,08,19,11,46,20.40
2014,08,19,11,47,20.30
2014,08,19,11,48,20.30
2014,08,19,11,49,20.30
2014,08,19,11,50,20.30
2014,08,19,11,51,20.30
2014,08,19,11,52,20.30
2014,08,19,11,53,20.40
2014,08,19,11,54,20.40
2014,08,19,11,55,20.40
2014,08,19,11,56,20.40
2014,08,19,11,57,20.30
2014,08,19,11,58,20.30
2014,08,19,11,59,20.40
2014,08,19,12,00,20.40
2014,08,19,12,01,20.50
2014,08,19,12,02,20.50
2014,08,19,12,03,20.50
2014,08,19,12,04,20.50
2014,08,19,12,05,20.60
2014,08,19,12,06,20.50
2014,08,19,12,07,20.50
2014,08,19,12,08,20.30
2014,08,19,12,09,20.20
2014,08,19,12,10,20.20
2014,08,19,12,11,20.20
2014,08,19,12,12,20.10
2014,08,19,12,13,20.10
2014,08,19,12,14,20.10
2014,08,19,12,15,19.90
2014,08,19,12,16,19.90
2014,08,19,12,17,20.00
2014,08,19,12,18,20.10
2014,08,19,12,19,20.20
2014,08,19,12,20,20.30
2014,08,19,12,21,20.40
2014,08,19,12,22,20.50
2014,08,19,12,23,20.60
2014,08,19,12,24,20.70
2014,08,19,12,25,20.70
2014,08,19,12,26,20.80
2014,08,19,12,27,20.90
2014,08,19,12,28,21.00
2014,08,19,12,29,21.10
2014,08,19,12,30,21.20
2014,08,19,12,31,21.30
2014,08,19,12,32,21.30
2014,08,19,12,33,21.40
2014,08,19,12,34,21.50
2014,08,19,12,35,21.60
2014,08,19,12,36,21.70
2014,08,19,12,37,21.90
2014,08,19,12,38,22.00
2014,08,19,12,39,22.10
2014,08,19,12,40,22.20
2014,08,19,12,41,22.20
2014,08,19,12,42,22.20
2014,08,19,12,43,22.10
2014,08,19,12,44,22.10
2014,08,19,12,45,22.00
2014,08,19,12,46,21.80
2014,08,19,12,47,21.90
2014,08,19,12,48,22.00
2014,08,19,12,49,22.00
2014,08,19,12,50,22.10
2014,08,19,12,51,22.20
2014,08,19,12,52,22.20
2014,08,19,12,53,22.20
2014,08,19,12,54,22.20
2014,08,19,12,55,22.10
2014,08,19,12,56,22.10
2014,08,19,12,57,22.10
2014,08,19,12,58,22.00
2014,08,19,12,59,22.00
2014,08,19,13,00,21.90
2014,08,19,13,01,21.90
2014,08,19,13,02,21.90
2014,08,19,13,03,22.00
2014,08,19,13,04,22.00
2014,08,19,13,05,22.10
2014,08,19,13,06,22.10
2014,08,19,13,07,22.20
2014,08,19,13,08,22.20
2014,08,19,13,09,22.30
2014,08,19,13,10,22.30
2014,08,19,13,11,22.30
2014,08,19,13,12,22.30
2014,08,19,13,13,22.30
2014,08,19,13,14,22.30
2014,08,19,13,15,22.40
2014,08,19,13,16,22.40
2014,08,19,13,17,22.50
2014,08,19,13,18,22.60
2014,08,19,13,19,22.60
2014,08,19,13,20,22.70
2014,08,19,13,21,22.80
2014,08,19,13,22,22.80
2014,08,19,13,23,22.90
2014,08,19,13,24,22.90
2014,08,19,13,25,23.00
2014,08,19,13,26,23.10
2014,08,19,13,27,23.20
2014,08,19,13,28,23.30
2014,08,19,13,29,23.30
2014,08,19,13,30,23.30
2014,08,19,13,31,23.30
2014,08,19,13,32,23.30
2014,08,19,13,33,23.30
2014,08,19,13,34,23.40
2014,08,19,13,35,23.50
2014,08,19,13,36,23.60
2014,08,19,13,37,23.70
2014,08,19,13,38,23.70
2014,08,19,13,39,23.70
2014,08,19,13,40,23.70
2014,08,19,13,41,23.80
2014,08,19,13,42,23.80
2014,08,19,13,43,23.80
2014,08,19,13,44,23.90
2014,08,19,13,45,23.90
2014,08,19,13,46,23.70
2014,08,19,13,47,23.30
2014,08,19,13,48,22.60
2014,08,19,13,49,21.90
2014,08,19,13,50,21.20
2014,08,19,13,51,20.50
2014,08,19,13,52,20.10
2014,08,19,13,53,19.90
2014,08,19,13,54,19.80
2014,08,19,13,55,19.80
2014,08,19,13,56,19.80
2014,08,19,13,57,19.90
2014,08,19,13,58,19.90
2014,08,19,13,59,19.90
2014,08,19,14,00,20.00
2014,08,19,14,01,20.10
2014,08,19,14,02,20.20
2014,08,19,14,03,20.40
2014,08,19,14,04,20.60
2014,08,19,14,05,20.70
2014,08,19,14,06,20.80
2014,08,19,14,07,20.90
2014,08,19,14,08,20.90
2014,08,19,14,09,20.90
2014,08,19,14,10,20.90
2014,08,19,14,11,21.00
2014,08,19,14,12,21.10
2014,08,19,14,13,21.10
2014,08,19,14,14,21.20
2014,08,19,14,15,21.20
2014,08,19,14,16,21.20
2014,08,19,14,17,21.20
2014,08,19,14,18,21.30
2014,08,19,14,19,21.40
2014,08,19,14,20,21.50
2014,08,19,14,21,21.60
2014,08,19,14,22,21.40
2014,08,19,14,23,21.30
2014,08,19,14,24,21.30
2014,08,19,14,25,21.20
2014,08,19,14,26,21.00
2014,08,19,14,27,21.00
2014,08,19,14,28,20.80
2014,08,19,14,29,20.70
2014,08,19,14,30,20.50
2014,08,19,14,31,20.40
2014,08,19,14,32,20.20
2014,08,19,14,33,20.00
2014,08,19,14,34,19.90
2014,08,19,14,35,19.90
2014,08,19,14,36,19.90
2014,08,19,14,37,19.80
2014,08,19,14,38,19.80
2014,08,19,14,39,19.70
2014,08,19,14,40,19.50
2014,08,19,14,41,19.40
2014,08,19,14,42,19.40
2014,08,19,14,43,19.30
2014,08,19,14,44,19.20
2014,08,19,14,45,19.30
2014,08,19,14,46,19.20
2014,08,19,14,47,19.10
2014,08,19,14,48,19.10
2014,08,19,14,49,19.10
2014,08,19,14,50,19.10
2014,08,19,14,51,19.10
2014,08,19,14,52,19.10
2014,08,19,14,53,19.10
2014,08,19,14,54,19.00
2014,08,19,14,55,19.00
2014,08,19,14,56,19.10
2014,08,19,14,57,19.10
2014,08,19,14,58,19.20
2014,08,19,14,59,19.30
2014,08,19,15,00,19.40
2014,08,19,15,01,19.40
2014,08,19,15,02,19.50
2014,08,19,15,03,19.50
2014,08,19,15,04,19.50
2014,08,19,15,05,19.50
2014,08,19,15,06,19.60
2014,08,19,15,07,19.70
2014,08,19,15,08,19.70
2014,08,19,15,09,19.60
2014,08,19,15,10,19.50
2014,08,19,15,11,19.30
2014,08,19,15,12,19.20
2014,08,19,15,13,19.10
2014,08,19,15,14,19.00
2014,08,19,15,15,18.80
2014,08,19,15,16,18.60
2014,08,19,15,17,18.40
2014,08,19,15,18,18.20
2014,08,19,15,19,18.20
2014,08,19,15,20,18.10
2014,08,19,15,21,18.10
2014,08,19,15,22,18.10
2014,08,19,15,23,18.10
2014,08,19,15,24,18.10
2014,08,19,15,25,18.10
2014,08,19,15,26,18.10
2014,08,19,15,27,18.20
2014,08,19,15,28,18.20
2014,08,19,15,29,18.30
2014,08,19,15,30,18.30
2014,08,19,15,31,18.30
2014,08,19,15,32,18.30
2014,08,19,15,33,18.30
2014,08,19,15,34,18.40
2014,08,19,15,35,18.50
2014,08,19,15,36,18.70
2014,08,19,15,37,18.80
2014,08,19,15,38,18.90
2014,08,19,15,39,18.80
2014,08,19,15,40,18.70
2014,08,19,15,41,18.70
2014,08,19,15,42,18.70
2014,08,19,15,43,18.70
2014,08,19,15,44,18.70
2014,08,19,15,45,18.70
2014,08,19,15,46,18.80
2014,08,19,15,47,18.80
2014,08,19,15,48,18.90
2014,08,19,15,49,19.00
2014,08,19,15,50,19.10
2014,08,19,15,51,19.10
2014,08,19,15,52,19.10
2014,08,19,15,53,19.10
2014,08,19,15,54,19.10
2014,08,19,15,55,19.10
2014,08,19,15,56,19.10
2014,08,19,15,57,19.10
2014,08,19,15,58,19.10
2014,08,19,15,59,19.30
2014,08,19,16,00,19.40
2014,08,19,16,01,19.40
2014,08,19,16,02,19.50
2014,08,19,16,03,19.50
2014,08,19,16,04,19.50
2014,08,19,16,05,19.50
2014,08,19,16,06,19.50
2014,08,19,16,07,19.60
2014,08,19,16,08,19.60
2014,08,19,16,09,19.70
2014,08,19,16,10,19.70
2014,08,19,16,11,19.80
2014,08,19,16,12,19.80
2014,08,19,16,13,19.80
2014,08,19,16,14,19.70
2014,08,19,16,15,19.60
2014,08,19,16,16,19.40
2014,08,19,16,17,19.20
2014,08,19,16,18,19.10
2014,08,19,16,19,19.10
2014,08,19,16,20,19.10
2014,08,19,16,21,19.00
2014,08,19,16,22,18.90
2014,08,19,16,23,18.90
2014,08,19,16,24,18.90
2014,08,19,16,25,18.90
2014,08,19,16,26,18.90
2014,08,19,16,27,19.00
2014,08,19,16,28,19.10
2014,08,19,16,29,19.10
2014,08,19,16,30,19.20
2014,08,19,16,31,19.30
2014,08,19,16,32,19.40
2014,08,19,16,33,19.50
2014,08,19,16,34,19.60
2014,08,19,16,35,19.60
2014,08,19,16,36,19.60
2014,08,19,16,37,19.70
2014,08,19,16,38,19.70
2014,08,19,16,39,19.80
2014,08,19,16,40,19.80
2014,08,19,16,41,19.70
2014,08,19,16,42,19.70
2014,08,19,16,43,19.80
2014,08,19,16,44,19.80
2014,08,19,16,45,19.90
2014,08,19,16,46,19.90
2014,08,19,16,47,19.90
2014,08,19,16,48,19.80
2014,08,19,16,49,19.70
2014,08,19,16,50,19.70
2014,08,19,16,51,19.70
2014,08,19,16,52,19.70
2014,08,19,16,53,19.60
2014,08,19,16,54,19.60
2014,08,19,16,55,19.50
2014,08,19,16,56,19.50
2014,08,19,16,57,19.50
2014,08,19,16,58,19.60
2014,08,19,16,59,19.60
2014,08,19,17,00,19.70
2014,08,19,17,01,19.80
2014,08,19,17,02,19.90
2014,08,19,17,03,20.00
2014,08,19,17,04,20.10
2014,08,19,17,05,20.20
2014,08,19,17,06,20.20
2014,08,19,17,07,20.30
2014,08,19,17,08,20.50
2014,08,19,17,09,20.60
2014,08,19,17,10,20.80
2014,08,19,17,11,21.00
2014,08,19,17,12,21.30
2014,08,19,17,13,21.50
2014,08,19,17,14,21.90
2014,08,19,17,15,22.20
2014,08,19,17,16,22.50
2014,08,19,17,17,22.90
2014,08,19,17,18,23.20
2014,08,19,17,19,23.50